CZ-6A DEB

Satellite information

Favourite Embed

Satellite Type and Status

DEBRISIN ORBIT

Key statistics

Satellite CZ-6A DEB at a glance.

Uptime

276

Days in orbit

Revolutions

≈ 14.2

Per day

Orbit

LEO

Low Earth Orbit

Inclination

88.9

Latest

Satellite identification and parameters

Extended collection of information and parameters for CZ-6A DEB.

Object identification

Identified? True

Debris? True

Object name: CZ-6A DEB

International designator: 2024-140AAP

Object number (NORAD): 61481

Object ID (CCSDS): 61481

Country: PEOPLES REPUBLIC OF CHINA (PRC)

Current information (Y/N): Y

RCS size: SMALL

Orbital parameters

Period: 101.55 minutes

Inclination: 88.8929 deg

SMA: 7210.2 km

Apoapsis: 933.456 km

Periapsis: 730.673 km

RAAN: 316.8306 deg

Eccentricy: 0.0140622

Argument of periapsis: 357.4862 deg

Mean anomaly: 2.5602 deg

Mean motion: 14.1801826 rev/day

Mean motion (dot): 0.00001736 rev/day2

B* drag term: 0.0007629 1/REarth

Two-line elements (TLE)

Creation date: May 9, 2025, 2:46 a.m.

Reference frame: TEME

Reference center: EARTH

Epoch: May 8, 2025, 12:01 p.m. UTC

TLE line 0: 0 CZ-6A DEB

TLE line 1: 1 61481U 24140AAP 25128.50119586 .00001736 00000-0 76290-3 0 9998

TLE line 2: 2 61481 88.8929 316.8306 0140622 357.4862 2.5602 14.18018260 34747

Live tracking on map

Real-time ground track for satellite CZ-6A DEB.

In-orbit conjunctions

A list of the most updated potential collisions computed for object CZ-6A DEB.

Target Orbit TCA Probability of collision Miss distance Type
FENGYUN 1C DEB SSO 2025-03-04 16:29:15 0.000252066 234.0 (m) DEBRIS
SL-16 DEB LEO 2025-03-03 05:42:22 0.0002081195 678.0 (m) DEBRIS
COSMOS 1375 DEB LEO 2024-12-12 15:36:16 0.0004531928 611.0 (m) DEBRIS
FENGYUN 1C DEB SSO 2024-11-28 16:43:27 0.0001465826 355.0 (m) DEBRIS
FENGYUN 1C DEB SSO 2024-11-03 20:45:56 0.000123243 200.0 (m) DEBRIS

Associated space launch

18 Low Earth Orbit communication satellites with Ku, Q and V band payloads for the G60 constellation operated by Shanghai Spacecom Satellite Technology (SSST) with funding backed by the Shanghai local government. Initial constellation will consist of 1296 satellites by 2027 with long term plans to expand it to 12000 satellites.

CZ-6A DEB was lifted into orbit during the mission ‘Long March 6A | G60 Polar Group 01’, on board a Long March 6A space rocket.

The launch took place on Aug. 6, 2024, 6:42 a.m. from Launch Complex 9A.

For more information about the launch, click the button.

Launch to space Long March 6A | G60 Polar Group 01
Long March 6A | G60 Polar Group 01

Agency: N/A

Status: Launch Successful

Launch date: Aug. 6, 2024, 6:42 a.m. UTC

Rocket: Long March 6A

Launch pad: Launch Complex 9A

Location: Taiyuan Satellite Launch Center, People's Republic of China

...

Latest news about this satellite

News about space launch
Brightness of first Chinese broadband constellation satellites alarms astronomers

The first satellites of a Chinese broadband constellation are significantly brighter than those of Western systems, posing a new challenge for astronomers.

News about space launch
Chinese rocket stage breaks up into cloud of more than 700 pieces of space debris

HELSINKI — A Chinese Long March 6A rocket’s upper stage has fragmented into a cloud of over 700 pieces of space debris, adding to concerns about long-term orbital safety. China […]

News about space launch
China's Thousand Sails Megaconstellation Kicks Off with Dangerous Debris Field

China's Thousand Sails Megaconstellation Kicks Off with Dangerous Debris Field


Newsletter sign-up

Weekly statistics, charts and insights to help you stay on top of the space industry.